Alma, MI

12:58 AM EDT on July 24, 2019 (GMT -0400)
Gratiot Community

Weather History for KAMN - May, 2019

Change the Weather History Date:

Saturday, May 11, 2019

  Actual Average Record
Temperature  
Mean Temperature 44 °F -  
Max Temperature 54 °F 69 °F 88 °F (1993)
Min Temperature 34 °F 44 °F 29 °F (1949)
Degree Days  
Heating Degree Days 21    
Moisture  
Dew Point 35 °F    
Average Humidity 68    
Maximum Humidity 93    
Minimum Humidity 39    
Precipitation  
Precipitation 0.00 in - - ()
Sea Level Pressure  
Sea Level Pressure 30.14 in    
Wind  
Wind Speed 3 mph (ENE)    
Max Wind Speed 12 mph    
Max Gust Speed 20 mph    
Visibility 10 miles    
Events Rain    
Averages and records for this station are not official NWS values.
T = Trace of Precipitation, MM = Missing Value Source: NWS Daily Summary

Daily Weather History Graph

Daily Weather History Graph

Search for Another Location

Airport or City:

Astronomy

May. 11, 2019 Rise Set
Actual Time 6:19 AM EDT 8:51 PM EDT
Civil Twilight 5:46 AM EDT 9:24 PM EDT
Nautical Twilight 5:06 AM EDT 10:04 PM EDT
Astronomical Twilight 4:20 AM EDT 10:50 PM EDT
Moon 12:26 PM EDT (5/11) 2:32 AM EDT (5/11)
Length of Visible Light 15h 37m
Length of Day
14h 32m
Waxing Crescent, 46% of the Moon is Illuminated
May 11
Waxing Crescent
May 11
First Quarter
May 18
Full
May 26
Last Quarter
Jun 3
New

Hourly Weather History & Observations

Time (EDT) Temp. Windchill Dew Point Humidity Pressure Visibility Wind Dir Wind Speed Gust Speed Precip Events Conditions
12:15 AM 40.5 °F 38.4 °F 35.2 °F 82% 30.17 in 10.0 mi NW 3.5 mph - N/A   Clear
12:16 AM 40.3 °F 38.2 °F 35.2 °F 82% 30.17 in 10.0 mi NW 3.5 mph - N/A   Clear
12:35 AM 40.6 °F 38.6 °F 35.6 °F 82% 30.17 in 10.0 mi NW 3.5 mph - N/A   Clear
12:36 AM 41.0 °F 39.0 °F 35.6 °F 81% 30.17 in 10.0 mi NW 3.5 mph - N/A   Clear
12:55 AM 40.8 °F 38.8 °F 34.7 °F 79% 30.17 in 10.0 mi NNW 3.5 mph - N/A   Clear
12:56 AM 40.8 °F 38.8 °F 34.9 °F 79% 30.17 in 10.0 mi NNW 3.5 mph - N/A   Clear
1:15 AM 41.5 °F - 35.4 °F 79% 30.18 in 10.0 mi Calm Calm - N/A   Clear
1:16 AM 41.5 °F - 35.2 °F 78% 30.18 in 10.0 mi Calm Calm - N/A   Clear
1:35 AM 39.9 °F - 34.7 °F 82% 30.18 in 10.0 mi Calm Calm - N/A   Clear
1:55 AM 39.2 °F - 34.5 °F 83% 30.18 in 10.0 mi Calm Calm - N/A   Clear
2:15 AM 37.2 °F - 33.1 °F 85% 30.17 in 10.0 mi Calm Calm - N/A   Clear
2:35 AM 38.8 °F - 35.6 °F 88% 30.17 in 10.0 mi Calm Calm - N/A   Clear
2:55 AM 38.7 °F - 35.8 °F 89% 30.17 in 10.0 mi Calm Calm - N/A   Clear
3:15 AM 39.0 °F - 35.2 °F 86% 30.17 in 10.0 mi Calm Calm - N/A   Clear
3:35 AM 37.9 °F - 34.3 °F 87% 30.17 in 10.0 mi Calm Calm - N/A   Clear
3:36 AM 37.8 °F - 34.3 °F 87% 30.17 in 10.0 mi Calm Calm - N/A   Clear
3:55 AM 37.4 °F - 34.2 °F 88% 30.17 in 10.0 mi Calm Calm - N/A   Clear
3:56 AM 37.2 °F - 34.2 °F 89% 30.17 in 10.0 mi Calm Calm - N/A   Clear
4:15 AM 37.0 °F - 33.8 °F 88% 30.18 in 10.0 mi Calm Calm - N/A   Clear
4:16 AM 37.0 °F - 33.8 °F 88% 30.18 in 10.0 mi Calm Calm - N/A   Clear
4:35 AM 37.6 °F - 34.5 °F 89% 30.18 in 10.0 mi Calm Calm - N/A   Clear
4:36 AM 37.6 °F - 34.5 °F 89% 30.18 in 10.0 mi Calm Calm - N/A   Clear
4:55 AM 37.4 °F - 34.3 °F 89% 30.18 in 10.0 mi Calm Calm - N/A   Clear
5:15 AM 36.3 °F - 33.6 °F 90% 30.19 in 10.0 mi Calm Calm - N/A   Clear
5:16 AM 36.5 °F - 33.8 °F 90% 30.19 in 10.0 mi Calm Calm - N/A   Clear
5:35 AM 35.8 °F - 32.5 °F 88% 30.19 in 10.0 mi Calm Calm - N/A   Clear
5:55 AM 34.9 °F - 32.5 °F 91% 30.19 in 10.0 mi Calm Calm - N/A   Clear
6:15 AM 35.4 °F - 33.3 °F 92% 30.19 in 10.0 mi Calm Calm - N/A   Clear
6:35 AM 34.9 °F - 32.9 °F 92% 30.19 in 10.0 mi Calm Calm - N/A   Clear
6:55 AM 36.1 °F 33.5 °F 34.3 °F 93% 30.19 in 10.0 mi East 3.5 mph - N/A   Clear
6:56 AM 36.3 °F 33.7 °F 34.5 °F 93% 30.19 in 10.0 mi East 3.5 mph - N/A   Clear
7:15 AM 38.7 °F - 36.5 °F 92% 30.19 in 10.0 mi Calm Calm - N/A   Clear
7:16 AM 38.8 °F - 36.5 °F 91% 30.19 in 10.0 mi Calm Calm - N/A   Clear
7:35 AM 40.1 °F - 36.3 °F 86% 30.19 in 10.0 mi Calm Calm - N/A   Clear
7:36 AM 40.1 °F - 36.5 °F 87% 30.19 in 10.0 mi Calm Calm - N/A   Clear
7:55 AM 42.8 °F - 37.4 °F 81% 30.20 in 10.0 mi Calm Calm - N/A   Clear
7:56 AM 42.8 °F - 37.4 °F 81% 30.20 in 10.0 mi Calm Calm - N/A   Clear
8:15 AM 44.2 °F - 37.0 °F 76% 30.20 in 10.0 mi Calm Calm - N/A   Clear
8:35 AM 46.2 °F 44.1 °F 37.9 °F 73% 30.19 in 10.0 mi East 4.6 mph - N/A   Clear
8:55 AM 47.8 °F - 37.9 °F 69% 30.20 in 10.0 mi East 3.5 mph - N/A   Clear
9:15 AM 49.3 °F - 38.5 °F 66% 30.20 in 10.0 mi East 5.8 mph - N/A   Clear
9:35 AM 48.9 °F - 35.8 °F 61% 30.20 in 10.0 mi East 6.9 mph - N/A   Clear
9:36 AM 48.9 °F - 35.6 °F 60% 30.20 in 10.0 mi East 6.9 mph - N/A   Clear
9:55 AM 50.4 °F - 36.7 °F 59% 30.20 in 10.0 mi East 6.9 mph - N/A   Clear
9:56 AM 50.4 °F - 36.9 °F 60% 30.20 in 10.0 mi East 8.1 mph - N/A   Clear
10:15 AM 50.9 °F - 35.2 °F 55% 30.20 in 10.0 mi East 5.8 mph - N/A   Clear
10:35 AM 52.2 °F - 35.8 °F 54% 30.20 in 10.0 mi East 5.8 mph - N/A   Clear
10:36 AM 52.2 °F - 35.8 °F 54% 30.20 in 10.0 mi East 5.8 mph - N/A   Clear
10:55 AM 53.8 °F - 33.4 °F 46% 30.19 in 10.0 mi East 8.1 mph - N/A   Clear
11:35 AM 54.1 °F - 31.5 °F 42% 30.18 in 10.0 mi ENE 6.9 mph - N/A   Clear
11:55 AM 54.7 °F - 31.5 °F 41% 30.18 in 10.0 mi NE 6.9 mph - N/A   Clear
12:15 PM 54.7 °F - 31.6 °F 42% 30.17 in 10.0 mi East 8.1 mph 16.1 mph N/A   Clear
12:16 PM 54.7 °F - 31.3 °F 41% 30.17 in 10.0 mi East 5.8 mph 16.1 mph N/A   Clear
12:35 PM 54.0 °F - 30.6 °F 41% 30.17 in 10.0 mi East 4.6 mph - N/A   Clear
12:36 PM 54.0 °F - 30.9 °F 41% 30.17 in 10.0 mi East 6.9 mph - N/A   Clear
12:55 PM 54.5 °F - 30.7 °F 40% 30.18 in 10.0 mi East 5.8 mph - N/A   Clear
12:56 PM 54.5 °F - 30.2 °F 39% 30.18 in 10.0 mi East 6.9 mph - N/A   Clear
1:15 PM 54.5 °F - 31.3 °F 41% 30.17 in 10.0 mi East 6.9 mph - N/A   Clear
1:16 PM 54.5 °F - 31.1 °F 41% 30.17 in 10.0 mi ENE 6.9 mph - N/A   Clear
1:35 PM 54.3 °F - 30.6 °F 40% 30.16 in 10.0 mi ENE 8.1 mph - N/A   Scattered Clouds
1:55 PM 54.5 °F - 30.9 °F 41% 30.15 in 10.0 mi East 8.1 mph - N/A   Clear
2:15 PM 54.1 °F - 31.1 °F 41% 30.14 in 10.0 mi ENE 8.1 mph - N/A   Scattered Clouds
2:35 PM 54.1 °F - 32.0 °F 43% 30.14 in 10.0 mi East 8.1 mph - N/A   Scattered Clouds
2:55 PM 54.0 °F - 32.2 °F 44% 30.13 in 10.0 mi East 8.1 mph - N/A   Scattered Clouds
3:15 PM 53.8 °F - 31.8 °F 43% 30.12 in 10.0 mi ENE 5.8 mph - N/A   Scattered Clouds
3:35 PM 54.0 °F - 32.9 °F 45% 30.12 in 10.0 mi East 5.8 mph - N/A   Scattered Clouds
3:36 PM 54.1 °F - 32.9 °F 45% 30.12 in 10.0 mi East 5.8 mph - N/A   Scattered Clouds
3:55 PM 53.6 °F - 31.8 °F 44% 30.11 in 10.0 mi ENE 6.9 mph - N/A   Mostly Cloudy
3:56 PM 53.6 °F - 31.8 °F 44% 30.11 in 10.0 mi ENE 6.9 mph - N/A   Mostly Cloudy
4:15 PM 53.2 °F - 32.2 °F 45% 30.11 in 10.0 mi East 5.8 mph - N/A   Overcast
4:16 PM 53.2 °F - 32.2 °F 45% 30.10 in 10.0 mi East 8.1 mph - N/A   Overcast
4:35 PM 53.1 °F - 31.5 °F 44% 30.10 in 10.0 mi ENE 8.1 mph - N/A   Overcast
4:36 PM 53.1 °F - 31.6 °F 44% 30.10 in 10.0 mi ENE 9.2 mph - N/A   Overcast
4:55 PM 52.7 °F - 31.6 °F 45% 30.09 in 10.0 mi East 8.1 mph - N/A   Overcast
5:15 PM 52.7 °F - 32.0 °F 45% 30.09 in 10.0 mi ENE 8.1 mph - N/A   Overcast
5:35 PM 52.3 °F - 32.7 °F 47% 30.09 in 10.0 mi ENE 8.1 mph - N/A   Overcast
5:55 PM 51.8 °F - 35.6 °F 54% 30.09 in 10.0 mi ENE 9.2 mph - N/A   Overcast
6:15 PM 51.4 °F - 36.0 °F 56% 30.09 in 10.0 mi ENE 8.1 mph - N/A   Overcast
6:35 PM 51.1 °F - 36.5 °F 57% 30.09 in 10.0 mi ENE 5.8 mph - N/A   Overcast
6:36 PM 51.1 °F - 36.7 °F 58% 30.09 in 10.0 mi East 5.8 mph - N/A   Overcast
6:55 PM 49.5 °F - 31.8 °F 51% 30.09 in 10.0 mi East 10.4 mph 19.6 mph N/A Rain Light Rain
6:56 PM 49.5 °F - 32.4 °F 52% 30.09 in 10.0 mi ENE 10.4 mph 19.6 mph N/A Rain Rain
7:15 PM 48.4 °F - 34.9 °F 60% 30.09 in 10.0 mi ENE 4.6 mph 9.2 mph N/A Rain Light Rain
7:16 PM 48.2 °F - 35.2 °F 61% 30.09 in 10.0 mi ENE 4.6 mph 9.2 mph N/A Rain Light Rain
7:35 PM 47.5 °F - 36.7 °F 66% 30.08 in 7.0 mi ESE 3.5 mph - N/A Rain Light Rain
7:55 PM 46.6 °F - 39.0 °F 75% 30.08 in 7.0 mi ENE 5.8 mph - N/A Rain Light Rain
8:15 PM 46.0 °F 42.5 °F 38.7 °F 75% 30.07 in 10.0 mi East 6.9 mph - N/A Rain Light Rain
8:35 PM 45.5 °F 42.5 °F 39.2 °F 79% 30.06 in 10.0 mi East 5.8 mph - N/A Rain Light Rain
8:55 PM 45.5 °F 41.8 °F 39.4 °F 79% 30.05 in 10.0 mi East 6.9 mph - N/A   Overcast
9:15 PM 45.1 °F 39.9 °F 39.2 °F 80% 30.04 in 10.0 mi ENE 10.4 mph - N/A   Overcast
9:16 PM 45.1 °F 39.5 °F 39.2 °F 80% 30.04 in 10.0 mi East 11.5 mph - N/A   Overcast
9:35 PM 45.1 °F 41.4 °F 38.8 °F 79% 30.04 in 10.0 mi East 6.9 mph - N/A   Overcast
9:36 PM 45.1 °F 42.0 °F 38.8 °F 79% 30.04 in 10.0 mi East 5.8 mph - N/A   Overcast
9:55 PM 45.1 °F 40.8 °F 38.5 °F 77% 30.03 in 10.0 mi East 8.1 mph - N/A   Overcast
9:56 PM 45.1 °F 40.8 °F 38.5 °F 77% 30.03 in 10.0 mi East 8.1 mph - N/A   Overcast
10:15 PM 45.3 °F 41.6 °F 37.0 °F 73% 30.02 in 10.0 mi East 6.9 mph - N/A   Overcast
10:16 PM 45.5 °F 41.8 °F 37.0 °F 72% 30.02 in 10.0 mi East 6.9 mph - N/A   Overcast
10:35 PM 45.3 °F 44.0 °F 36.9 °F 72% 30.02 in 10.0 mi East 3.5 mph - N/A   Overcast
10:55 PM 45.0 °F - 37.6 °F 75% 30.02 in 10.0 mi Calm Calm - N/A   Overcast
11:15 PM 45.0 °F - 37.8 °F 76% 30.03 in 10.0 mi Calm Calm - N/A   Overcast
11:35 PM 44.8 °F - 37.9 °F 77% 30.01 in 10.0 mi Calm Calm - N/A   Overcast
11:55 PM 44.8 °F - 38.3 °F 78% 30.01 in 10.0 mi Calm Calm - N/A   Overcast
11:56 PM 45.0 °F - 38.3 °F 77% 30.01 in 10.0 mi Calm Calm - N/A   Overcast